Aérodrome :
LOGIN :

S'inscrire | Disclaimer

   EN    FR    IT 

 










Légende :    VFR   VFR Marginal   IFR   IFR Intensif   IFR Très Intensif
Visi : 
Plafond : 
>= 8 km
>= 3000ft
5 à 8 km
1000 à 3000 ft
1500m à 5 km
500 à 1000 ft
800 à 1500m
200 à 500 ft
< 800m
< 200 ft
Symboles :   Orages  Brouillard  Fortes neiges  Fortes précipitations  Vent > 20 kt
SIGMETs :   Divers  Orages  Givrage  Turbulence  Onde Orograph.  Cendres Volcan.







- Altitude de l'aérodrome : 1339 ft


ETHN - Niederstetten

DERNIER METAR :
  • 121620Z 04004KT 9999 FEW015 BKN035 01/M01 Q1021 BLU BLU TEMPO GRN

METARs EXPIRÉS :
  • 121520Z 02003KT 9999 FEW015 BKN030 02/M01 Q1021 BLU BLU TEMPO GRN
  • 121420Z 05006KT 9999 SCT015 BKN032 02/M01 Q1021 BLU BLU TEMPO GRN

TAF TAF ETHN
Valide du 12 à 15h jusqu'au 13 à 00h UTC


121414Z 1215/1224 07006KT 9999 NSW SCT015 BKN025
TEMPO 1215/1220 05005KT 9999 NSW BKN008
Pas de NOTAMs connus pour ce terrain.



MET'MAP, la Météo Aéronautique d'un coup d'oeil ! - Copyright ORBIFLY Décembre 2007 - Disclaimer

ORBIFLY MET'MAP TEAM :

Programmation & Développement : Alexandra Zaïnal
Conception & Développement : Baudouin d'Aumeries
Co-Programmation & Développement : Marc-Olivier Méhu
Soutien technique & logistique : Manuel Goepfert

Contact : metmap@orbifly.com




SOURCES & CREDITS :

   NOAA